Find Starlink 30989

NORAD ID: 58510 Int'l Des: 2023-191 Owner: SPXS Country: US Constellation: starlink operational
LEOCIRCULAR

实时位置

正在加载3D地球...

关于 Starlink 30989

正在加载描述...

即将过境

Passes for default location (London). Set your location on the main map for personalized predictions.

高度历史

Loading altitude history...

两行轨道根数

1 58510U 23191C 26121.81873633 .00000063 00000-0 11809-4 0 9998
2 58510 42.9990 163.6537 0001140 282.8800 77.1925 15.27580307133623
Epoch: May 1, 2026 • Age: 18 hours

当前状态

高度 484.1 km
速度 7.63 km/s
星下点 28.55°N, 119.04°W
发射日期 Dec 7, 2023
运行时间 2.4 years
类型 internet

技术详情

分类 Payload
质量 730.00 kg
干质量 700.00 kg
总质量 730.00 kg
长度 0.30 m
直径 4.10 m
跨度 29.00 m
形状 Box + pan
制造商 SPXS
平台类型 Starlink V2M
阶段状态 In Orbit
所有者/国家 SPXS/US

Most Searched